York, PA

5:26 AM EDT on October 19, 2017 (GMT -0400)
York

Weather History for KTHV - May, 2013

Change the Weather History Date:

Tuesday, May 28, 2013

  Actual Average Record
Temperature  
Mean Temperature 62 °F -  
Max Temperature 69 °F 75 °F 88 °F (2012)
Min Temperature 54 °F 49 °F 41 °F (1970)
Degree Days  
Heating Degree Days 4    
Growing Degree Days 12 (Base 50)    
Moisture  
Dew Point 57 °F    
Average Humidity 89    
Maximum Humidity 94    
Minimum Humidity 77    
Precipitation  
Precipitation 0.17 in - - ()
Sea Level Pressure  
Sea Level Pressure 30.14 in    
Wind  
Wind Speed 1 mph (East)    
Max Wind Speed 5 mph    
Max Gust Speed -    
Visibility 5 miles    
Events Fog , Rain    
Averages and records for this station are not official NWS values.
T = Trace of Precipitation, MM = Missing Value Source: NWS Daily Summary

Daily Weather History Graph

Daily Weather History Graph

Search for Another Location

Airport or City:

Trip Planner

Search our weather history database for the weather conditions in past years. The results will help you decide how hot, cold, wet, or windy it might be!

Date:

Astronomy

May. 28, 2013 Rise Set
Actual Time 5:42 AM EDT 8:27 PM EDT
Civil Twilight 5:10 AM EDT 8:59 PM EDT
Nautical Twilight 4:31 AM EDT 9:39 PM EDT
Astronomical Twilight 3:45 AM EDT 10:24 PM EDT
Moon 11:49 PM EDT (5/28) 9:28 AM EDT (5/28)
Length of Visible Light 15h 48m
Length of Day
14h 44m
Waning Gibbous, 83% of the Moon is Illuminated
May 28
Waning Gibbous
May 31
Last Quarter
Jun 8
New
Jun 16
First Quarter
Jun 23
Full

Hourly Weather History & Observations

Time (EDT) Temp. Dew Point Humidity Pressure Visibility Wind Dir Wind Speed Gust Speed Precip Events Conditions
12:53 AM 55.9 °F 48.9 °F 77% 30.22 in 10.0 mi Calm Calm - 0.00 in Rain Light Rain
1:53 AM 55.9 °F 51.1 °F 84% 30.19 in 10.0 mi Calm Calm - 0.00 in   Mostly Cloudy
2:53 AM 55.0 °F 51.1 °F 86% 30.19 in 10.0 mi Calm Calm - N/A   Clear
3:53 AM 54.0 °F 51.1 °F 90% 30.17 in 10.0 mi Calm Calm - N/A   Mostly Cloudy
4:53 AM 55.0 °F 52.0 °F 89% 30.17 in 10.0 mi Calm Calm - 0.01 in   Overcast
5:53 AM 55.0 °F 51.1 °F 86% 30.18 in 10.0 mi Calm Calm - N/A   Overcast
6:53 AM 55.9 °F 52.0 °F 87% 30.19 in 10.0 mi Calm Calm - 0.00 in Rain Light Rain
7:53 AM 55.9 °F 53.1 °F 90% 30.19 in 3.0 mi Calm Calm - 0.02 in Rain Rain
8:53 AM 55.9 °F 54.0 °F 93% 30.19 in 7.0 mi NNE 3.5 mph - 0.03 in Rain Light Rain
9:53 AM 55.9 °F 54.0 °F 93% 30.19 in 6.0 mi East 3.5 mph - 0.02 in Rain Light Rain
10:53 AM 57.0 °F 54.0 °F 89% 30.17 in 2.5 mi ESE 4.6 mph - 0.04 in Rain Rain
11:09 AM 57.2 °F 55.4 °F 94% 30.16 in 4.0 mi East 4.6 mph - 0.02 in Rain Light Rain
11:22 AM 57.2 °F 55.4 °F 94% 30.16 in 5.0 mi East 4.6 mph - 0.02 in Rain Light Rain
11:36 AM 59.0 °F 57.2 °F 94% 30.16 in 5.0 mi East 3.5 mph - 0.02 in   Overcast
11:53 AM 60.1 °F 57.9 °F 93% 30.16 in 6.0 mi Calm Calm - 0.02 in   Overcast
12:24 PM 60.8 °F 57.2 °F 88% 30.15 in 5.0 mi Variable 3.5 mph - N/A   Overcast
12:45 PM 60.8 °F 57.2 °F 88% 30.15 in 7.0 mi SSW 4.6 mph - 0.00 in Rain Light Rain
12:53 PM 62.1 °F 59.0 °F 90% 30.15 in 8.0 mi Calm Calm - 0.00 in   Overcast
1:17 PM 62.6 °F 57.2 °F 82% 30.15 in 8.0 mi Calm Calm - N/A   Overcast
1:53 PM 62.1 °F 59.0 °F 90% 30.16 in 3.0 mi Calm Calm - 0.00 in Rain Light Rain
2:13 PM 62.6 °F 60.8 °F 94% 30.15 in 3.0 mi Calm Calm - 0.01 in Rain Light Rain
2:53 PM 63.0 °F 60.1 °F 90% 30.14 in 6.0 mi Calm Calm - 0.02 in   Mostly Cloudy
3:53 PM 64.9 °F 61.0 °F 87% 30.13 in 6.0 mi Calm Calm - 0.01 in   Mostly Cloudy
4:53 PM 68.0 °F 62.1 °F 81% 30.12 in 6.0 mi Calm Calm - N/A   Haze
5:53 PM 69.1 °F 63.0 °F 81% 30.11 in 6.0 mi Calm Calm - N/A   Haze
7:53 PM 66.0 °F 63.0 °F 90% 30.09 in 4.0 mi NE 3.5 mph - N/A   Overcast
8:29 PM 66.2 °F 62.6 °F 88% 30.08 in 2.5 mi Calm Calm - N/A   Clear
8:43 PM 66.2 °F 62.6 °F 88% 30.08 in 4.0 mi NE 4.6 mph - N/A   Clear
8:53 PM 64.9 °F 62.1 °F 90% 30.09 in 3.0 mi Calm Calm - N/A   Clear
9:53 PM 63.0 °F 61.0 °F 93% 30.09 in 2.5 mi Calm Calm - N/A   Clear
10:37 PM 62.6 °F 60.8 °F 94% 30.10 in 2.0 mi Calm Calm - N/A   Clear
10:53 PM 62.1 °F 59.0 °F 90% 30.10 in 1.2 mi SE 3.5 mph - N/A   Clear
11:32 PM 60.8 °F 59.0 °F 94% 30.09 in 1.0 mi Calm Calm - N/A   Mist
11:39 PM 60.8 °F 59.0 °F 94% 30.09 in 0.5 mi Calm Calm - N/A Fog Fog
11:53 PM 60.1 °F 57.9 °F 93% 30.10 in 1.0 mi Calm Calm - N/A   Mist